Weather History for Emporia, KS

Change the Weather History Date:

Sunday, November 24, 2013

  Actual Average Record
Temperature  
Mean Temperature 20 °F 40 °F  
Max Temperature 27 °F 52 °F 68 °F (2011)
Min Temperature 13 °F 30 °F 13 °F (2013)
Degree Days  
Heating Degree Days 45 24  
Month to date heating degree days 510 458  
Since 1 July heating degree days 839 785  
Cooling Degree Days 0 0  
Month to date cooling degree days 0 0  
Year to date cooling degree days 1375 1402  
Moisture  
Dew Point 10 °F    
Average Humidity 67    
Maximum Humidity 88    
Minimum Humidity 46    
Precipitation  
Precipitation 0.00 in 0.06 in 0.26 in (2001)
Month to date precipitation 0.66 1.87  
Year to date precipitation 32.93 34.75  
Sea Level Pressure  
Sea Level Pressure 30.60 in    
Wind  
Wind Speed 7 mph (SE)    
Max Wind Speed 14 mph    
Max Gust Speed 17 mph    
Visibility 10 miles    
Events      
T = Trace of Precipitation, MM = Missing Value Source: NWS Daily Summary

Daily Weather History Graph

Daily Weather History Graph

Search for Another Location

Airport:

Trip Planner

Search our weather history database for the weather conditions in past years. The results will help you decide how hot, cold, wet, or windy it might be!

Date:

Astronomy

Nov. 24, 2013 Rise Set
Actual Time 7:16 AM CST 5:06 PM CST
Civil Twilight 6:47 AM CST 5:35 PM CST
Nautical Twilight 6:14 AM CST 6:08 PM CST
Astronomical Twilight 5:43 AM CST 6:39 PM CST
Moon 11:30 PM CST (11/24) 12:06 PM CST (11/24)
Length of Visible Light 10h 48m
Length of Day
9h 50m
Waning Gibbous, 60% of the Moon is Illuminated
Nov 24
Waning Gibbous
Nov 25
Last Quarter
Dec 2
New
Dec 9
First Quarter
Dec 17
Full

Hourly Weather History & Observations

Time (CST) Temp. Windchill Dew Point Humidity Pressure Visibility Wind Dir Wind Speed Gust Speed Precip Events Conditions
12:53 AM 15.1 °F 7.7 °F 9.0 °F 77% 30.79 in 10.0 mi NNE 4.6 mph - N/A   Clear
1:53 AM 15.1 °F 4.2 °F 10.0 °F 80% 30.75 in 10.0 mi NE 8.1 mph - N/A   Clear
2:53 AM 15.1 °F 7.7 °F 9.0 °F 77% 30.78 in 10.0 mi ENE 4.6 mph - N/A   Clear
3:53 AM 14.0 °F 5.1 °F 9.0 °F 80% 30.76 in 10.0 mi NE 5.8 mph - N/A   Clear
4:53 AM 14.0 °F - 10.0 °F 84% 30.79 in 10.0 mi Calm Calm - N/A   Clear
5:53 AM 14.0 °F - 10.0 °F 84% 30.77 in 10.0 mi Calm Calm - N/A   Clear
6:53 AM 15.1 °F 9.4 °F 9.0 °F 77% 30.75 in 10.0 mi East 3.5 mph - N/A   Clear
7:53 AM 15.1 °F 7.7 °F 10.0 °F 80% 30.74 in 10.0 mi ESE 4.6 mph - N/A   Clear
8:53 AM 16.0 °F 6.3 °F 9.0 °F 74% 30.74 in 10.0 mi SE 6.9 mph - N/A   Clear
9:53 AM 18.0 °F 9.8 °F 9.0 °F 68% 30.72 in 10.0 mi ESE 5.8 mph - N/A   Clear
10:53 AM 19.9 °F 11.1 °F 10.0 °F 65% 30.69 in 10.0 mi SSE 6.9 mph - N/A   Clear
11:53 AM 21.9 °F 12.5 °F 9.0 °F 58% 30.64 in 10.0 mi SSE 8.1 mph - N/A   Clear
12:53 PM 24.1 °F 17.0 °F 8.1 °F 51% 30.60 in 10.0 mi Variable 5.8 mph - N/A   Clear
1:53 PM 25.0 °F 15.5 °F 8.1 °F 49% 30.57 in 10.0 mi South 9.2 mph - N/A   Clear
2:53 PM 25.0 °F 15.5 °F 9.0 °F 51% 30.54 in 10.0 mi SSE 9.2 mph - N/A   Mostly Cloudy
3:53 PM 26.1 °F 16.8 °F 9.0 °F 49% 30.53 in 10.0 mi SSE 9.2 mph - N/A   Overcast
4:53 PM 26.1 °F 16.8 °F 9.0 °F 49% 30.52 in 10.0 mi South 9.2 mph - N/A   Overcast
5:53 PM 26.1 °F 16.2 °F 9.0 °F 49% 30.48 in 10.0 mi SSE 10.4 mph - N/A   Overcast
6:53 PM 26.1 °F 15.6 °F 10.0 °F 51% 30.45 in 10.0 mi SSE 11.5 mph - N/A   Overcast
7:53 PM 26.1 °F 15.6 °F 10.9 °F 53% 30.40 in 10.0 mi SSE 11.5 mph - N/A   Overcast
8:53 PM 26.1 °F 15.0 °F 12.0 °F 55% 30.38 in 10.0 mi South 12.7 mph - N/A   Overcast
9:53 PM 27.0 °F 16.7 °F 12.9 °F 56% 30.37 in 10.0 mi SSE 11.5 mph - N/A   Overcast
10:53 PM 27.0 °F 19.5 °F 12.9 °F 56% 30.37 in 10.0 mi South 6.9 mph - N/A   Overcast
11:53 PM 27.0 °F 18.0 °F 12.9 °F 56% 30.35 in 10.0 mi South 9.2 mph - N/A   Overcast